Terug naar catalogus

COSMOS 2271

ActiefMilitairPO
NORAD 23002·PAYLOAD·🇷🇺 Russia

Gelanceerd Feb 12, 1994 vanaf Plesetsk Cosmodrome

Loading…

Volgende Passages (komende 24 uur)

TLE

VersSource: Space-Track

Epoch: Sep 14, 2026, 15:30 UTC

1 23002U 94011D   26257.64649319  .00000000  00000-0 -56263-4 0  9993
2 23002  82.5615 239.9250 0006956 359.9685   0.1405 12.63524683502789

Volg COSMOS 2271 in realtime met AllMySat

Download on the App Store